2020/12/03 23:29:59+0000,-40.72,-46.63,-33.92,-49.05,-55.21,-54.14
2020/12/03 23:30:51+0000,-40.20,-47.62,-33.22,-51.51,-54.92,-54.69
2020/12/03 23:31:53+0000,-40.25,-47.18,-33.74,-49.18,-55.25,-54.92
2020/12/03 23:32:45+0000,-41.19,-47.67,-33.26,-49.49,-55.13,-54.66
2020/12/03 23:33:37+0000,-40.77,-45.07,-33.78,-50.16,-55.18,-54.83
2020/12/03 23:34:29+0000,-40.79,-45.19,-34.69,-50.16,-55.08,-54.50
2020/12/03 23:35:21+0000,-40.78,-47.23,-33.38,-48.64,-55.33,-54.82
2020/12/03 23:36:13+0000,-41.58,-46.54,-34.36,-50.24,-55.12,-55.19
2020/12/03 23:37:05+0000,-41.43,-46.68,-34.21,-51.22,-54.62,-54.82
2020/12/03 23:37:58+0000,-41.55,-44.25,-34.55,-49.59,-54.97,-54.98
2020/12/03 23:38:50+0000,-40.95,-46.65,-33.15,-51.68,-55.56,-54.62
2020/12/03 23:39:42+0000,-40.95,-47.26,-34.80,-48.02,-54.99,-55.17
2020/12/03 23:40:34+0000,-40.71,-45.53,-34.50,-51.63,-55.54,-54.99
2020/12/03 23:41:34+0000,-41.21,-45.54,-34.24,-50.79,-55.45,-55.05
2020/12/03 23:42:26+0000,-41.77,-45.88,-33.13,-48.38,-55.51,-55.04
2020/12/03 23:43:18+0000,-41.83,-46.38,-32.76,-50.37,-55.16,-54.77
2020/12/03 23:44:10+0000,-41.15,-45.30,-33.63,-48.26,-55.82,-54.93
2020/12/03 23:45:02+0000,-41.24,-44.70,-33.50,-50.08,-55.42,-54.87
2020/12/03 23:45:54+0000,-41.18,-44.58,-32.52,-49.89,-55.37,-54.62
2020/12/03 23:46:46+0000,-41.50,-44.69,-32.87,-49.79,-55.88,-55.24
2020/12/03 23:47:38+0000,-41.30,-45.69,-34.33,-51.14,-55.46,-54.74
2020/12/03 23:48:30+0000,-41.21,-44.75,-33.57,-50.70,-54.60,-54.83
2020/12/03 23:49:23+0000,-40.69,-46.55,-33.36,-50.18,-55.42,-55.06
2020/12/03 23:50:15+0000,-41.74,-44.67,-34.35,-49.20,-55.57,-54.69
2020/12/03 23:51:16+0000,-41.71,-43.82,-34.30,-49.78,-55.81,-54.13
2020/12/03 23:52:08+0000,-41.49,-46.62,-33.45,-48.86,-55.08,-54.89
2020/12/03 23:53:00+0000,-41.95,-45.68,-34.30,-49.64,-55.80,-54.42
2020/12/03 23:53:52+0000,-41.35,-46.43,-33.47,-49.06,-54.15,-54.62
2020/12/03 23:54:44+0000,-42.19,-45.39,-34.33,-50.84,-55.22,-54.74
2020/12/03 23:55:36+0000,-41.81,-45.09,-34.13,-51.99,-55.90,-54.40
2020/12/03 23:56:28+0000,-41.67,-44.94,-33.53,-49.84,-55.42,-54.26
2020/12/03 23:57:20+0000,-40.63,-46.71,-33.35,-51.73,-55.29,-54.83
2020/12/03 23:58:12+0000,-41.81,-46.09,-34.12,-49.42,-55.95,-55.10
2020/12/03 23:59:04+0000,-40.11,-45.34,-34.05,-51.80,-55.96,-54.84
2020/12/03 23:59:56+0000,-33.92,-45.31,-33.36,-49.33,-56.11,-54.55
2020/12/04 00:00:52+0000,-40.63,-46.88,-33.79,-50.81,-55.35,-54.56
2020/12/04 00:01:54+0000,-40.37,-46.54,-33.66,-50.98,-55.04,-54.26
2020/12/04 00:02:46+0000,-40.53,-45.77,-33.56,-49.63,-55.74,-54.96
2020/12/04 00:03:38+0000,-40.79,-44.63,-34.08,-50.39,-55.49,-54.96
2020/12/04 00:04:30+0000,-40.68,-45.78,-34.72,-49.83,-55.44,-54.60
2020/12/04 00:05:22+0000,-40.21,-46.32,-33.70,-49.63,-55.67,-54.58
2020/12/04 00:06:14+0000,-40.45,-44.14,-33.35,-51.07,-55.58,-54.60
2020/12/04 00:07:06+0000,-39.59,-45.68,-34.99,-50.62,-56.33,-53.85
2020/12/04 00:07:58+0000,-39.75,-45.61,-34.94,-50.36,-55.32,-54.26
2020/12/04 00:08:50+0000,-40.59,-44.97,-33.96,-48.22,-55.97,-54.75
2020/12/04 00:09:42+0000,-40.73,-46.24,-34.73,-51.93,-56.04,-54.77
2020/12/04 00:10:34+0000,-40.57,-46.67,-34.20,-52.01,-55.55,-55.21
2020/12/04 00:11:36+0000,-40.02,-47.83,-34.16,-50.65,-56.02,-55.33
2020/12/04 00:12:28+0000,-40.20,-45.77,-34.33,-50.59,-55.93,-54.59
2020/12/04 00:13:20+0000,-38.74,-44.45,-32.95,-50.64,-55.81,-55.04
2020/12/04 00:14:12+0000,-40.64,-44.76,-34.33,-50.71,-55.65,-53.91
2020/12/04 00:15:04+0000,-40.37,-46.76,-33.87,-52.47,-55.70,-54.40
2020/12/04 00:15:56+0000,-40.07,-44.54,-34.14,-50.34,-55.31,-54.79
2020/12/04 00:16:48+0000,-38.45,-44.36,-32.53,-51.80,-55.93,-54.19
2020/12/04 00:17:40+0000,-40.76,-45.68,-34.25,-50.70,-56.02,-54.24
2020/12/04 00:18:32+0000,-40.46,-46.19,-33.51,-51.36,-55.79,-54.36
2020/12/04 00:19:24+0000,-37.87,-46.04,-33.61,-50.31,-55.80,-54.68
2020/12/04 00:20:16+0000,-38.60,-45.48,-31.30,-50.10,-55.01,-54.46
2020/12/04 00:21:18+0000,-39.71,-46.28,-31.98,-52.13,-55.07,-54.16
2020/12/04 00:22:10+0000,-39.67,-43.91,-34.41,-51.13,-55.51,-54.79
2020/12/04 00:23:02+0000,-39.53,-45.33,-34.53,-51.58,-55.56,-54.27
2020/12/04 00:23:54+0000,-38.68,-45.29,-32.95,-51.95,-54.94,-54.41
2020/12/04 00:24:46+0000,-38.77,-42.75,-33.49,-50.84,-55.41,-54.36
2020/12/04 00:25:38+0000,-40.02,-44.45,-34.46,-50.98,-56.10,-54.77
2020/12/04 00:26:30+0000,-41.09,-45.53,-34.08,-50.88,-54.99,-55.01
2020/12/04 00:27:22+0000,-38.25,-46.14,-33.53,-51.10,-56.00,-54.10
2020/12/04 00:28:14+0000,-41.77,-44.96,-34.08,-51.17,-55.91,-54.52
2020/12/04 00:29:06+0000,-41.26,-46.72,-34.58,-51.04,-55.70,-54.50
2020/12/04 00:29:58+0000,-41.06,-43.30,-34.06,-51.17,-55.58,-54.35
2020/12/04 00:30:50+0000,-37.88,-44.53,-33.82,-51.98,-55.61,-54.61
2020/12/04 00:31:50+0000,-39.37,-46.80,-33.93,-52.27,-55.22,-54.61
2020/12/04 00:32:42+0000,-40.68,-44.74,-34.33,-51.11,-55.31,-54.19
2020/12/04 00:33:34+0000,-39.74,-43.41,-34.83,-52.74,-55.68,-54.74
2020/12/04 00:34:26+0000,-39.99,-44.49,-34.66,-52.21,-56.38,-54.64
2020/12/04 00:35:18+0000,-39.90,-45.37,-33.66,-52.36,-55.87,-54.68
2020/12/04 00:36:10+0000,-40.27,-45.84,-35.07,-51.73,-56.02,-53.94
2020/12/04 00:37:02+0000,-40.14,-44.55,-34.19,-51.30,-55.52,-54.48
2020/12/04 00:37:54+0000,-37.59,-43.34,-34.34,-51.79,-56.14,-54.29
2020/12/04 00:38:46+0000,-37.18,-43.88,-34.04,-51.88,-55.55,-54.62
2020/12/04 00:39:39+0000,-41.48,-45.98,-34.05,-51.66,-55.80,-54.77
2020/12/04 00:40:31+0000,-41.23,-43.60,-33.93,-51.36,-55.80,-54.50
2020/12/04 00:41:33+0000,-40.15,-44.59,-34.66,-51.91,-55.21,-55.06
2020/12/04 00:42:25+0000,-37.16,-42.81,-33.66,-51.55,-55.85,-54.46
2020/12/04 00:43:17+0000,-38.99,-44.30,-33.74,-48.39,-55.72,-55.32
2020/12/04 00:44:09+0000,-40.29,-44.58,-34.07,-51.93,-55.26,-54.65
2020/12/04 00:45:01+0000,-41.01,-45.23,-34.01,-51.19,-55.51,-54.40
2020/12/04 00:45:53+0000,-39.54,-43.79,-34.29,-51.61,-55.16,-55.39
2020/12/04 00:46:45+0000,-40.61,-44.62,-33.53,-51.83,-55.43,-54.74
2020/12/04 00:47:37+0000,-40.06,-45.67,-34.15,-51.70,-55.44,-54.59
2020/12/04 00:48:29+0000,-40.22,-45.04,-34.63,-52.33,-55.67,-54.78
2020/12/04 00:49:21+0000,-39.24,-45.18,-33.25,-52.14,-56.16,-54.78
2020/12/04 00:50:14+0000,-39.93,-45.20,-34.55,-51.88,-55.91,-55.50
2020/12/04 00:51:16+0000,-39.72,-44.20,-34.17,-52.04,-54.97,-53.99
2020/12/04 00:52:08+0000,-40.11,-46.67,-34.85,-52.20,-54.83,-54.86
2020/12/04 00:53:00+0000,-39.34,-45.94,-33.91,-51.14,-55.27,-54.47
2020/12/04 00:53:52+0000,-38.25,-45.29,-33.25,-51.97,-55.58,-53.88
2020/12/04 00:54:44+0000,-38.48,-44.50,-34.11,-52.12,-55.08,-53.81
2020/12/04 00:55:36+0000,-38.52,-45.46,-34.49,-51.91,-55.01,-53.93
2020/12/04 00:56:28+0000,-37.43,-46.10,-33.68,-50.70,-54.80,-54.69
2020/12/04 00:57:20+0000,-37.42,-45.29,-33.61,-51.34,-55.12,-54.41
2020/12/04 00:58:12+0000,-38.82,-44.36,-33.25,-50.90,-55.38,-53.70
2020/12/04 00:59:04+0000,-38.98,-46.44,-33.64,-51.85,-55.17,-54.55
2020/12/04 00:59:56+0000,-39.50,-45.30,-32.96,-51.28,-54.66,-53.81
2020/12/04 01:00:48+0000,-39.83,-44.01,-33.71,-51.39,-54.89,-53.64
2020/12/04 01:01:50+0000,-39.80,-49.84,-33.95,-50.83,-54.14,-53.60
2020/12/04 01:02:43+0000,-39.34,-48.39,-34.48,-51.42,-53.52,-54.03
2020/12/04 01:03:35+0000,-39.60,-49.65,-33.65,-52.20,-53.95,-54.31
2020/12/04 01:04:27+0000,-39.09,-48.27,-33.99,-51.89,-54.26,-53.58
2020/12/04 01:05:19+0000,-38.77,-49.07,-33.98,-51.34,-54.58,-54.23
2020/12/04 01:06:11+0000,-38.99,-47.37,-34.63,-51.38,-53.44,-53.93
2020/12/04 01:07:03+0000,-39.11,-47.20,-33.68,-51.89,-53.27,-54.07
2020/12/04 01:07:55+0000,-39.07,-48.77,-34.56,-51.55,-53.98,-53.65
2020/12/04 01:08:47+0000,-39.48,-49.32,-34.91,-51.82,-54.12,-54.02
2020/12/04 01:09:39+0000,-39.80,-48.81,-34.12,-52.02,-54.25,-53.80
2020/12/04 01:10:31+0000,-39.24,-47.13,-34.28,-51.03,-54.54,-53.49
2020/12/04 01:11:37+0000,-39.25,-44.89,-34.34,-51.66,-54.30,-54.56
2020/12/04 01:12:29+0000,-39.42,-48.18,-34.28,-51.42,-54.31,-54.36
2020/12/04 01:13:21+0000,-39.21,-49.48,-34.00,-52.11,-53.95,-53.92
2020/12/04 01:14:13+0000,-39.01,-48.05,-34.43,-52.00,-54.58,-54.42
2020/12/04 01:15:05+0000,-39.67,-50.75,-34.32,-51.74,-53.99,-53.79
2020/12/04 01:15:57+0000,-39.51,-38.13,-34.83,-51.19,-54.67,-53.97
2020/12/04 01:16:49+0000,-39.78,-48.92,-33.89,-52.53,-53.51,-53.70
2020/12/04 01:17:41+0000,-39.85,-49.12,-35.14,-51.22,-54.10,-54.46
2020/12/04 01:18:33+0000,-40.02,-37.25,-33.84,-50.77,-54.08,-53.61
2020/12/04 01:19:25+0000,-40.65,-48.39,-34.03,-52.05,-53.78,-54.29
2020/12/04 01:20:17+0000,-40.80,-37.34,-34.36,-52.16,-54.25,-53.78
2020/12/04 01:21:19+0000,-39.23,-37.71,-34.07,-52.36,-54.40,-53.62
2020/12/04 01:22:11+0000,-40.26,-37.11,-33.99,-52.11,-54.30,-53.39
2020/12/04 01:23:03+0000,-40.54,-47.59,-33.87,-52.19,-53.71,-53.37
2020/12/04 01:23:55+0000,-39.89,-47.69,-34.31,-51.51,-53.80,-53.85
2020/12/04 01:24:47+0000,-40.77,-37.56,-34.11,-50.85,-54.10,-53.81
2020/12/04 01:25:39+0000,-39.05,-37.41,-34.24,-51.75,-54.24,-54.23
2020/12/04 01:26:31+0000,-40.29,-47.45,-33.83,-52.07,-53.95,-53.47
2020/12/04 01:27:23+0000,-40.70,-48.64,-33.76,-51.98,-54.47,-54.08
2020/12/04 01:28:15+0000,-40.23,-37.84,-34.70,-51.36,-53.52,-54.01
2020/12/04 01:29:07+0000,-39.71,-49.66,-34.09,-51.58,-54.71,-53.64
2020/12/04 01:29:59+0000,-40.30,-48.05,-34.21,-51.73,-53.31,-54.12
2020/12/04 01:30:51+0000,-35.73,-49.58,-33.54,-51.80,-53.55,-53.72
2020/12/04 01:31:49+0000,-35.63,-37.79,-34.31,-51.81,-53.25,-53.64
2020/12/04 01:32:41+0000,-40.44,-37.53,-34.46,-52.67,-53.90,-54.01
2020/12/04 01:33:33+0000,-40.27,-47.09,-34.79,-51.59,-53.73,-54.08
2020/12/04 01:34:25+0000,-35.13,-37.47,-34.83,-51.87,-53.48,-54.33
2020/12/04 01:35:17+0000,-34.26,-47.63,-34.65,-51.45,-54.01,-53.74
2020/12/04 01:36:09+0000,-40.13,-48.13,-33.98,-51.21,-54.46,-53.96
2020/12/04 01:37:01+0000,-40.45,-47.51,-34.56,-51.03,-54.71,-54.32
2020/12/04 01:37:53+0000,-34.24,-47.34,-33.83,-52.12,-55.38,-54.09
2020/12/04 01:38:45+0000,-40.44,-37.46,-34.05,-51.64,-55.31,-54.35
2020/12/04 01:39:37+0000,-39.79,-47.09,-34.43,-52.07,-55.63,-54.14
2020/12/04 01:40:29+0000,-40.00,-44.12,-34.02,-51.96,-54.95,-53.82
2020/12/04 01:41:30+0000,-38.93,-43.72,-34.08,-52.21,-55.20,-54.28
2020/12/04 01:42:22+0000,-38.92,-48.12,-34.45,-51.60,-55.48,-54.72
2020/12/04 01:43:14+0000,-38.73,-37.27,-34.56,-52.06,-55.29,-54.22
2020/12/04 01:44:06+0000,-39.49,-47.78,-34.57,-52.53,-55.55,-54.08
2020/12/04 01:44:58+0000,-38.07,-43.74,-34.23,-52.55,-54.86,-54.45
2020/12/04 01:45:50+0000,-31.93,-36.99,-33.64,-52.83,-55.26,-54.27
2020/12/04 01:46:42+0000,-38.79,-46.88,-34.32,-52.68,-55.34,-54.89
2020/12/04 01:47:34+0000,-39.16,-44.00,-34.66,-52.53,-55.00,-54.25
2020/12/04 01:48:26+0000,-32.96,-36.60,-33.99,-52.51,-55.61,-54.12
2020/12/04 01:49:18+0000,-40.95,-46.41,-34.95,-52.44,-55.76,-54.42
2020/12/04 01:50:11+0000,-39.03,-46.75,-34.35,-52.70,-55.22,-53.80
2020/12/04 01:51:12+0000,-39.53,-46.76,-34.83,-52.15,-54.93,-54.03
2020/12/04 01:52:04+0000,-39.47,-35.97,-34.76,-52.14,-55.71,-54.10
2020/12/04 01:52:56+0000,-39.97,-42.83,-34.70,-52.28,-55.22,-54.16
2020/12/04 01:53:48+0000,-40.59,-46.28,-34.27,-52.22,-55.24,-53.76
2020/12/04 01:54:40+0000,-38.94,-47.21,-34.15,-51.78,-55.43,-54.30
2020/12/04 01:55:32+0000,-40.81,-35.52,-34.45,-51.55,-55.23,-54.15
2020/12/04 01:56:24+0000,-36.79,-47.23,-34.21,-52.39,-55.52,-54.33
2020/12/04 01:57:16+0000,-40.81,-45.73,-34.45,-52.46,-55.23,-54.32
2020/12/04 01:58:08+0000,-38.43,-48.04,-34.85,-51.11,-54.96,-54.27
2020/12/04 01:59:00+0000,-38.46,-35.88,-34.72,-51.88,-54.95,-54.57
2020/12/04 01:59:53+0000,-38.83,-47.71,-34.92,-51.81,-54.30,-54.45
2020/12/04 02:00:45+0000,-38.75,-47.42,-34.13,-52.24,-54.79,-54.63
2020/12/04 02:01:49+0000,-38.15,-47.11,-34.78,-51.71,-54.68,-54.22
2020/12/04 02:02:41+0000,-37.52,-47.06,-34.86,-52.31,-55.47,-54.35
2020/12/04 02:03:33+0000,-40.34,-36.11,-34.76,-52.15,-55.50,-54.46
2020/12/04 02:04:25+0000,-40.02,-43.60,-34.81,-52.42,-55.14,-54.53
2020/12/04 02:05:17+0000,-40.23,-46.92,-34.41,-51.80,-54.38,-54.42
2020/12/04 02:06:09+0000,-39.09,-46.29,-34.68,-52.51,-55.16,-54.58
2020/12/04 02:07:01+0000,-40.17,-44.54,-34.73,-53.02,-54.67,-54.04
2020/12/04 02:07:53+0000,-40.88,-43.75,-34.95,-51.60,-54.48,-54.67
2020/12/04 02:08:46+0000,-40.62,-46.29,-35.07,-52.42,-55.23,-55.06
2020/12/04 02:09:38+0000,-39.41,-46.69,-34.83,-52.15,-54.53,-54.11
2020/12/04 02:10:30+0000,-40.90,-45.38,-33.87,-51.69,-55.23,-53.78
2020/12/04 02:11:32+0000,-39.88,-36.67,-34.46,-52.93,-55.60,-54.46
2020/12/04 02:12:24+0000,-40.44,-36.39,-34.40,-52.21,-54.91,-54.12
2020/12/04 02:13:16+0000,-40.36,-47.31,-33.99,-52.49,-54.93,-53.84
2020/12/04 02:14:09+0000,-39.72,-47.23,-34.35,-52.20,-55.11,-54.37
2020/12/04 02:15:01+0000,-40.05,-36.29,-34.75,-53.10,-55.29,-54.10
2020/12/04 02:15:53+0000,-39.78,-44.28,-35.02,-52.21,-55.22,-54.60
2020/12/04 02:16:45+0000,-39.82,-47.42,-34.57,-52.48,-55.64,-54.08
2020/12/04 02:17:37+0000,-40.23,-47.78,-34.90,-52.30,-55.59,-54.24
2020/12/04 02:18:29+0000,-40.11,-36.52,-34.62,-52.13,-54.61,-54.10
2020/12/04 02:19:21+0000,-39.79,-46.90,-34.61,-53.03,-54.68,-54.33
2020/12/04 02:20:13+0000,-39.49,-46.94,-34.27,-52.25,-54.33,-54.31
2020/12/04 02:21:15+0000,-40.35,-46.99,-34.84,-52.15,-55.13,-54.37
2020/12/04 02:22:07+0000,-40.26,-46.98,-34.42,-52.62,-54.57,-53.83
2020/12/04 02:22:59+0000,-41.00,-44.81,-34.73,-52.09,-54.87,-54.39
2020/12/04 02:23:51+0000,-39.38,-47.05,-34.50,-51.78,-55.15,-54.57
2020/12/04 02:24:43+0000,-40.23,-48.01,-34.75,-52.43,-54.99,-54.70
2020/12/04 02:25:35+0000,-39.82,-42.22,-34.34,-52.31,-54.61,-53.99
2020/12/04 02:26:27+0000,-39.98,-44.00,-34.86,-52.69,-54.92,-54.11
2020/12/04 02:27:19+0000,-39.38,-48.10,-34.72,-52.18,-55.46,-54.42
2020/12/04 02:28:11+0000,-40.29,-47.71,-35.36,-52.54,-55.45,-54.41
2020/12/04 02:29:03+0000,-39.94,-36.87,-34.82,-52.05,-54.70,-53.90
2020/12/04 02:29:55+0000,-39.44,-36.97,-34.79,-51.60,-54.44,-53.81
2020/12/04 02:30:47+0000,-39.86,-48.06,-35.52,-52.57,-54.66,-54.40
2020/12/04 02:31:49+0000,-40.14,-48.34,-34.47,-52.19,-55.03,-54.71
2020/12/04 02:32:41+0000,-40.29,-48.47,-34.83,-52.36,-55.33,-54.56
2020/12/04 02:33:33+0000,-39.72,-45.82,-34.23,-52.66,-55.26,-54.16
2020/12/04 02:34:25+0000,-39.52,-45.87,-34.94,-51.88,-55.04,-54.68
2020/12/04 02:35:17+0000,-39.84,-48.19,-34.57,-52.86,-55.58,-54.85
2020/12/04 02:36:09+0000,-40.10,-48.20,-35.16,-52.62,-54.85,-53.91
2020/12/04 02:37:01+0000,-40.20,-45.62,-34.76,-52.59,-55.25,-54.71
2020/12/04 02:37:53+0000,-40.34,-48.94,-34.48,-51.77,-55.32,-54.06
2020/12/04 02:38:45+0000,-40.60,-48.19,-34.88,-51.75,-54.98,-54.16
2020/12/04 02:39:37+0000,-40.69,-48.56,-34.74,-52.45,-54.58,-54.72
2020/12/04 02:40:29+0000,-40.25,-45.97,-34.91,-52.12,-55.11,-54.74
2020/12/04 02:41:36+0000,-39.98,-48.49,-34.70,-52.17,-55.27,-54.46
2020/12/04 02:42:28+0000,-39.00,-45.68,-34.94,-53.04,-54.86,-54.51
2020/12/04 02:43:20+0000,-39.13,-48.39,-35.04,-52.69,-55.37,-54.33
2020/12/04 02:44:12+0000,-39.80,-48.21,-34.65,-52.74,-54.51,-53.88
2020/12/04 02:45:04+0000,-39.49,-48.89,-34.81,-52.37,-54.65,-54.25
2020/12/04 02:45:56+0000,-38.88,-48.16,-34.73,-52.77,-54.70,-54.08
2020/12/04 02:46:48+0000,-39.96,-48.80,-35.22,-52.85,-54.54,-54.27
2020/12/04 02:47:40+0000,-39.79,-48.72,-35.15,-52.32,-54.82,-54.19
2020/12/04 02:48:33+0000,-40.26,-47.93,-34.55,-52.73,-55.06,-54.64
2020/12/04 02:49:25+0000,-39.32,-48.16,-34.57,-52.57,-54.65,-54.68
2020/12/04 02:50:17+0000,-40.49,-47.77,-34.70,-51.27,-54.86,-54.19
2020/12/04 02:51:29+0000,-38.91,-47.75,-34.93,-52.55,-54.85,-54.63
2020/12/04 02:52:21+0000,-39.23,-48.73,-34.97,-51.81,-54.38,-53.85
2020/12/04 02:53:13+0000,-40.49,-48.41,-34.38,-52.09,-55.70,-53.77
2020/12/04 02:54:05+0000,-40.38,-49.49,-34.73,-52.44,-54.81,-53.84
2020/12/04 02:54:57+0000,-39.76,-49.08,-34.61,-52.26,-55.01,-54.19
2020/12/04 02:55:49+0000,-39.96,-49.74,-35.04,-52.34,-54.73,-54.32
2020/12/04 02:56:41+0000,-40.71,-48.49,-35.29,-51.58,-55.18,-54.15
2020/12/04 02:57:33+0000,-41.17,-49.02,-34.78,-52.24,-55.09,-54.38
2020/12/04 02:58:25+0000,-40.46,-49.65,-34.50,-52.18,-55.48,-53.93
2020/12/04 02:59:17+0000,-40.75,-49.29,-34.74,-52.18,-55.15,-54.70
2020/12/04 03:00:09+0000,-39.99,-49.60,-34.64,-51.44,-54.66,-54.88
2020/12/04 03:01:16+0000,-39.51,-49.11,-34.87,-52.27,-54.94,-54.28
2020/12/04 03:02:08+0000,-39.94,-49.14,-34.75,-51.73,-54.93,-53.98
2020/12/04 03:03:00+0000,-39.73,-49.32,-34.75,-52.16,-54.84,-54.06
2020/12/04 03:03:52+0000,-38.18,-49.35,-34.73,-52.91,-54.71,-53.93
2020/12/04 03:04:44+0000,-41.09,-49.82,-34.90,-52.68,-54.64,-54.12
2020/12/04 03:05:36+0000,-40.87,-49.76,-34.97,-52.74,-54.56,-54.48
2020/12/04 03:06:28+0000,-40.61,-49.18,-34.76,-52.81,-54.94,-54.38
2020/12/04 03:07:20+0000,-39.37,-49.62,-34.11,-52.77,-54.81,-54.05
2020/12/04 03:08:12+0000,-39.20,-48.70,-34.99,-52.33,-55.02,-54.63
2020/12/04 03:09:04+0000,-39.43,-46.08,-34.90,-51.94,-55.09,-54.02
2020/12/04 03:09:56+0000,-38.45,-44.11,-34.89,-44.03,-54.72,-54.34
2020/12/04 03:10:49+0000,-38.38,-48.04,-34.27,-44.82,-54.44,-53.89
2020/12/04 03:11:55+0000,-38.54,-48.37,-34.89,-44.33,-54.93,-54.30
2020/12/04 03:12:47+0000,-39.31,-47.94,-35.36,-43.96,-55.24,-54.19
2020/12/04 03:13:39+0000,-39.10,-47.72,-35.43,-43.66,-54.72,-54.13
2020/12/04 03:14:31+0000,-38.99,-47.41,-34.73,-44.72,-54.47,-53.81
2020/12/04 03:15:23+0000,-38.17,-48.06,-34.41,-43.51,-55.30,-54.30
2020/12/04 03:16:15+0000,-39.33,-47.49,-34.50,-43.01,-55.68,-54.26
2020/12/04 03:17:07+0000,-37.32,-48.19,-34.78,-43.24,-54.95,-53.65
2020/12/04 03:17:59+0000,-38.21,-47.61,-34.63,-42.70,-54.96,-54.15
2020/12/04 03:18:51+0000,-37.89,-47.52,-35.70,-42.09,-55.08,-54.23
2020/12/04 03:19:43+0000,-37.81,-47.87,-34.67,-43.44,-55.09,-54.40
2020/12/04 03:20:35+0000,-38.54,-48.57,-34.53,-43.95,-54.95,-54.35
2020/12/04 03:21:40+0000,-38.45,-47.47,-35.22,-43.84,-54.51,-54.11
2020/12/04 03:22:32+0000,-39.39,-47.56,-34.69,-43.24,-54.81,-54.04
2020/12/04 03:23:24+0000,-38.85,-47.31,-34.42,-43.09,-55.18,-54.88
2020/12/04 03:24:16+0000,-39.31,-47.50,-34.24,-41.67,-54.22,-53.68
2020/12/04 03:25:08+0000,-38.35,-47.79,-34.62,-42.97,-55.44,-54.59
2020/12/04 03:26:01+0000,-39.70,-46.87,-35.24,-42.07,-54.89,-53.81
2020/12/04 03:26:53+0000,-38.46,-47.54,-35.08,-41.89,-55.15,-54.89
2020/12/04 03:27:45+0000,-40.47,-46.57,-34.81,-42.00,-55.52,-54.47
2020/12/04 03:28:37+0000,-39.78,-47.33,-35.30,-41.76,-54.71,-54.59
2020/12/04 03:29:29+0000,-39.19,-47.56,-34.95,-41.00,-54.88,-54.74
2020/12/04 03:30:21+0000,-38.67,-48.19,-34.06,-41.85,-55.19,-54.59
2020/12/04 03:31:19+0000,-38.90,-46.83,-34.44,-41.10,-54.56,-54.61
2020/12/04 03:32:11+0000,-39.74,-46.89,-33.82,-41.24,-55.27,-54.37
2020/12/04 03:33:03+0000,-38.95,-47.06,-35.19,-41.17,-55.32,-54.29
2020/12/04 03:33:55+0000,-38.17,-44.14,-34.88,-41.47,-54.89,-54.52
2020/12/04 03:34:47+0000,-38.85,-47.41,-34.44,-41.96,-54.42,-54.03
2020/12/04 03:35:39+0000,-38.87,-47.19,-34.53,-42.21,-54.01,-54.85
2020/12/04 03:36:31+0000,-39.05,-44.83,-34.54,-42.99,-54.79,-54.46
2020/12/04 03:37:24+0000,-39.77,-44.49,-34.80,-42.10,-54.40,-54.35
2020/12/04 03:38:16+0000,-38.98,-46.73,-34.29,-41.96,-54.56,-53.66
2020/12/04 03:39:08+0000,-39.51,-47.51,-34.36,-41.29,-53.58,-53.91
2020/12/04 03:40:00+0000,-40.05,-44.67,-34.29,-41.03,-55.18,-54.42
2020/12/04 03:41:03+0000,-39.75,-47.28,-34.22,-40.70,-55.17,-54.32
2020/12/04 03:41:55+0000,-38.28,-47.16,-34.32,-41.79,-54.56,-54.86
2020/12/04 03:42:47+0000,-39.06,-47.39,-34.41,-42.03,-54.93,-54.18
2020/12/04 03:43:39+0000,-38.88,-47.60,-34.17,-41.92,-55.15,-54.48
2020/12/04 03:44:31+0000,-40.02,-45.20,-34.47,-41.62,-55.33,-54.66
2020/12/04 03:45:24+0000,-38.56,-44.90,-34.29,-42.51,-54.67,-54.27
2020/12/04 03:46:16+0000,-39.29,-46.95,-34.43,-41.97,-54.99,-54.14
2020/12/04 03:47:08+0000,-39.05,-47.17,-34.50,-42.01,-56.10,-54.55
2020/12/04 03:48:00+0000,-39.05,-44.99,-34.13,-41.82,-54.48,-54.33
2020/12/04 03:48:52+0000,-38.96,-46.99,-33.63,-42.91,-54.85,-54.23
2020/12/04 03:49:44+0000,-38.77,-47.14,-34.02,-41.97,-54.94,-53.78
2020/12/04 03:50:36+0000,-39.44,-46.70,-34.47,-41.84,-54.92,-54.26
2020/12/04 03:51:42+0000,-39.27,-47.66,-34.16,-42.63,-54.56,-54.20
2020/12/04 03:52:34+0000,-38.27,-44.51,-34.92,-41.22,-54.32,-53.63
2020/12/04 03:53:26+0000,-38.42,-45.12,-34.61,-42.15,-54.47,-55.19
2020/12/04 03:54:18+0000,-38.77,-47.18,-34.21,-42.55,-54.28,-53.86
2020/12/04 03:55:10+0000,-38.69,-46.95,-34.60,-41.84,-54.45,-53.71
2020/12/04 03:56:02+0000,-39.06,-44.72,-34.85,-42.59,-54.35,-54.22
2020/12/04 03:56:54+0000,-38.55,-44.64,-35.01,-42.13,-54.30,-54.63
2020/12/04 03:57:46+0000,-39.20,-46.33,-35.17,-41.79,-54.49,-54.05
2020/12/04 03:58:38+0000,-38.75,-47.49,-34.82,-42.35,-54.14,-54.05
2020/12/04 03:59:31+0000,-39.02,-47.90,-35.22,-42.13,-54.67,-54.01
2020/12/04 04:00:23+0000,-38.45,-47.34,-35.11,-41.85,-54.57,-54.02
2020/12/04 04:01:28+0000,-39.98,-47.84,-34.68,-42.04,-54.22,-54.22
2020/12/04 04:02:20+0000,-38.68,-45.61,-35.14,-41.97,-54.26,-53.94
2020/12/04 04:03:12+0000,-38.67,-43.45,-35.00,-41.95,-54.40,-54.01
2020/12/04 04:04:04+0000,-38.87,-45.48,-34.55,-42.38,-53.98,-54.01
2020/12/04 04:04:56+0000,-38.16,-45.51,-35.01,-42.51,-54.84,-54.61
2020/12/04 04:05:48+0000,-37.80,-43.98,-34.66,-42.60,-55.21,-53.66
2020/12/04 04:06:40+0000,-38.82,-43.78,-34.41,-42.04,-54.56,-54.23
2020/12/04 04:07:32+0000,-38.42,-44.28,-34.81,-42.55,-55.37,-54.23
2020/12/04 04:08:24+0000,-37.77,-44.78,-34.73,-42.07,-54.50,-53.88
2020/12/04 04:09:16+0000,-37.44,-44.45,-34.65,-42.18,-54.23,-54.51
2020/12/04 04:10:09+0000,-38.98,-45.07,-34.75,-41.64,-54.79,-54.46
2020/12/04 04:11:09+0000,-38.98,-45.07,-34.69,-43.09,-54.63,-53.78
2020/12/04 04:12:01+0000,-39.14,-43.34,-34.75,-42.51,-54.77,-54.46
2020/12/04 04:12:53+0000,-38.60,-44.04,-34.43,-42.69,-54.59,-53.91
2020/12/04 04:13:45+0000,-39.13,-45.04,-33.94,-42.31,-54.52,-53.95
2020/12/04 04:14:37+0000,-38.66,-44.70,-35.17,-43.06,-54.68,-54.46
2020/12/04 04:15:29+0000,-38.61,-43.85,-34.83,-43.16,-55.17,-54.13
2020/12/04 04:16:21+0000,-36.44,-44.51,-35.51,-43.07,-53.62,-54.28
2020/12/04 04:17:13+0000,-38.11,-43.72,-34.29,-42.93,-54.67,-54.41
2020/12/04 04:18:05+0000,-37.55,-44.03,-35.07,-43.32,-54.52,-54.08
2020/12/04 04:18:57+0000,-36.18,-42.45,-35.06,-43.48,-54.70,-53.92
2020/12/04 04:19:51+0000,-35.45,-45.41,-34.07,-43.41,-54.56,-54.44
2020/12/04 04:20:43+0000,-37.80,-43.82,-34.18,-42.74,-54.31,-53.99
2020/12/04 04:21:41+0000,-37.20,-45.18,-34.69,-42.80,-54.77,-53.90
2020/12/04 04:22:33+0000,-37.78,-41.84,-34.54,-43.78,-54.80,-54.67
2020/12/04 04:23:25+0000,-37.63,-44.50,-34.37,-43.09,-54.18,-54.26
2020/12/04 04:24:17+0000,-36.30,-43.72,-35.02,-42.94,-52.98,-53.94
2020/12/04 04:25:09+0000,-37.31,-44.87,-34.40,-43.47,-54.90,-53.94
2020/12/04 04:26:01+0000,-39.46,-43.49,-35.00,-42.08,-54.15,-54.31
2020/12/04 04:26:53+0000,-36.75,-44.28,-33.92,-43.68,-54.72,-54.22
2020/12/04 04:27:45+0000,-38.28,-44.90,-34.13,-43.44,-54.38,-54.65
2020/12/04 04:28:37+0000,-38.84,-43.99,-34.02,-43.05,-54.78,-54.25
2020/12/04 04:29:29+0000,-36.40,-43.16,-35.06,-43.24,-53.94,-53.96
2020/12/04 04:30:21+0000,-38.49,-44.26,-34.94,-43.21,-54.38,-53.66
2020/12/04 04:31:25+0000,-37.78,-44.46,-34.83,-42.30,-54.17,-53.88
2020/12/04 04:32:17+0000,-38.04,-44.16,-34.54,-42.90,-54.45,-54.19
2020/12/04 04:33:09+0000,-38.13,-45.02,-35.07,-43.32,-54.61,-54.34
2020/12/04 04:34:01+0000,-38.97,-45.35,-34.49,-42.82,-54.55,-54.53
2020/12/04 04:34:53+0000,-37.30,-43.59,-34.63,-43.13,-54.84,-54.03
2020/12/04 04:35:45+0000,-39.18,-43.93,-34.28,-42.68,-53.86,-54.28
2020/12/04 04:36:37+0000,-38.38,-44.91,-34.45,-42.52,-54.31,-54.27
2020/12/04 04:37:29+0000,-38.22,-43.99,-34.71,-43.69,-54.72,-54.47
2020/12/04 04:38:21+0000,-38.89,-43.38,-35.01,-43.01,-54.77,-54.71
2020/12/04 04:39:13+0000,-38.02,-45.28,-34.72,-41.90,-54.23,-54.01
2020/12/04 04:40:06+0000,-38.81,-43.71,-34.83,-42.59,-54.44,-54.13
2020/12/04 04:41:09+0000,-38.50,-44.63,-35.05,-42.65,-54.69,-54.48
2020/12/04 04:42:01+0000,-39.35,-45.16,-34.41,-42.96,-53.95,-54.40
2020/12/04 04:42:53+0000,-38.72,-44.95,-34.70,-42.47,-54.57,-54.09
2020/12/04 04:43:45+0000,-38.96,-43.83,-34.89,-43.24,-54.23,-53.76
2020/12/04 04:44:37+0000,-38.82,-43.25,-34.90,-42.82,-54.78,-53.67
2020/12/04 04:45:29+0000,-39.21,-44.81,-35.06,-41.74,-54.84,-52.85